Location: Assche-ter-Heiden
(50.9174°N, 4.1574°E)
Time: 22:54:56
(UTC+00:00)

Cosmos 1980 Rocket - Pass Details

Date: 20 January 2020
Orbit: 830 x 849 km, 71.0° (Epoch: 18 February)

Event Time Altitude Azimuth Distance (km) Brightness Sun altitude
Rises 04:46:54 0° 186° (S) 3,399 5.3 -26.1°
Reaches altitude 10° 04:49:26 10° 180° (S) 2,467 4.6 -25.7°
Maximum altitude 04:54:46 44° 110° (ESE) 1,162 3.3 -24.8°
Drops below altitude 10° 05:00:06 10° 40° (NE) 2,475 5.1 -24.0°
Sets 05:02:39 0° 34° (NE) 3,412 5.8 -23.6°
